Home   Weather   Cranbrook   Past weeks
Flag for Canada

Past Weather in Cranbrook, British Columbia, Canada — Yesterday and Last 2 Weeks

Now
43 °F

Broken clouds.


Feels Like: 37 °F
Forecast: 44 / 31 °F
Wind: 10 mph from Southeast

Location: Cranbrook

Current Time: Oct 21, 2019 at 5:12:02 pm

Latest Report: Oct 21, 2019 at 4:00 pm


Visibility: 25 mi

Pressure: 30.19 "Hg (26.93 "Hg at 933m altitude)

Humidity: 71%

Dew Point: 34 °F

Location of CranbrookLocation

Past Weather in Cranbrook — Graph

°F

Cranbrook Temperature Yesterday

Maximum temperature yesterday: 46 °F (at 4:00 pm)
Minimum temperature yesterday: 27 °F (at 6:00 am)
Average temperature yesterday: 36 °F

High & Low Weather Summary for the Past Weeks

 TemperatureHumidityPressure
High61 °F (Oct 6, 4:00 pm)100% (Oct 8, 2:00 am)30.62 "Hg (Oct 8, 2:00 am)
Low14 °F (Oct 10, 7:00 am)32% (Oct 14, 6:00 pm)29.51 "Hg (Oct 8, 4:00 am)
Average38 °F75%30.02 "Hg
* Reported Oct 6 4:00 pm — Oct 21 4:00 pm, Cranbrook. Weather by CustomWeather, © 2019

Note: Actual official high and low records may vary slightly from our data, if they occured in-between our weather recording intervals... More about our weather records

Advertising

Cranbrook Weather History for the Previous 24 Hours

Scroll right to see more
 ConditionsComfort  
Time TempWeatherWind HumidityBarometerVisibility
4:00 pm
Mon, Oct 21
43 °FBroken clouds.10 mph71%30.19 "Hg25 mi
3:00 pm43 °FMore clouds than sun.6 mph71%30.19 "Hg25 mi
2:00 pm39 °FMore clouds than sun.2 mph87%30.19 "Hg25 mi
1:00 pm39 °FCloudy.3 mph87%30.19 "Hg20 mi
12:00 pm37 °FPartly sunny.3 mph87%30.18 "Hg20 mi
11:38 am37 °FBroken clouds.2 mph87%30.18 "Hg15 mi
11:00 am36 °FMostly cloudy.No wind93%30.17 "Hg10 mi
10:00 am34 °FFog.2 mph93%30.15 "Hg5 mi
9:38 am32 °FIce fog.3 mph100%30.16 "Hg2 mi
9:00 am30 °FIce fog.2 mph100%30.15 "Hg1 mi
8:23 am28 °FIce fog.No wind93%30.14 "Hg0 mi
7:21 am27 °FFog.No wind100%30.11 "Hg10 mi
7:00 am30 °FIce fog.2 mph93%30.10 "Hg1 mi
6:50 am30 °FFog.2 mph100%30.09 "Hg2 mi
6:29 am30 °FIce fog.No wind93%30.09 "Hg1 mi
6:10 am28 °FIce fog.No wind100%30.08 "Hg0 mi
6:00 am28 °FIce fog.2 mph100%30.08 "Hg1 mi
5:00 am30 °FPassing clouds.3 mph93%30.04 "Hg25 mi
4:00 am32 °FOvercast.2 mph93%30.01 "Hg20 mi
3:00 am34 °FOvercast.2 mph93%29.99 "Hg20 mi
2:00 am36 °FOvercast.3 mph87%29.97 "Hg20 mi
1:00 am36 °FOvercast.6 mph87%29.96 "Hg20 mi
12:00 am36 °FScattered showers. Overcast.6 mph87%29.96 "Hg20 mi
11:00 pm
Sun, Oct 20
37 °FScattered showers. Overcast.10 mph81%29.96 "Hg20 mi
10:00 pm39 °FScattered showers. Mostly cloudy.9 mph75%29.97 "Hg20 mi
9:00 pm39 °FScattered showers. Mostly cloudy.6 mph70%29.97 "Hg20 mi
8:00 pm39 °FScattered showers. Overcast.7 mph70%29.97 "Hg25 mi
7:00 pm41 °FScattered showers. Mostly cloudy.12 mph70%29.97 "Hg25 mi
6:00 pm41 °FScattered showers. Mostly cloudy.16 mph66%29.97 "Hg25 mi
5:00 pm45 °FPartly sunny.3 mph61%29.96 "Hg25 mi
Weather by CustomWeather, © 2019

See weather overview